TimeEST,TemperatureF,Dew PointF,Humidity,Sea Level PressureIn,VisibilityMPH,Wind Direction,Wind SpeedMPH,Gust SpeedMPH,PrecipitationIn,Events,Conditions,WindDirDegrees,DateUTC
12:53 AM,30.9,19.9,64,30.06,10.0,SW,18.4,23.0,N/A,,Overcast,230,2012-11-25 05:53:00
1:53 AM,30.9,19.9,64,30.06,10.0,SW,19.6,24.2,N/A,,Overcast,230,2012-11-25 06:53:00
2:53 AM,30.0,21.0,69,30.05,10.0,SW,13.8,-,N/A,,Overcast,220,2012-11-25 07:53:00
3:53 AM,30.0,19.9,66,30.03,10.0,SW,12.7,-,N/A,,Overcast,220,2012-11-25 08:53:00
4:06 AM,30.2,19.4,64,30.01,10.0,SW,12.7,-,N/A,,Overcast,220,2012-11-25 09:06:00
4:53 AM,30.0,19.9,66,30.03,10.0,SW,15.0,-,N/A,,Overcast,230,2012-11-25 09:53:00
5:30 AM,30.2,21.2,69,30.01,10.0,SW,10.4,-,N/A,,Overcast,220,2012-11-25 10:30:00
5:53 AM,30.0,21.0,69,30.01,9.0,SSW,9.2,-,0.00,Snow,Light Snow,200,2012-11-25 10:53:00
6:18 AM,28.4,21.2,74,29.99,2.5,SSW,16.1,20.7,0.00,Snow,Light Snow,200,2012-11-25 11:18:00
6:27 AM,28.4,23.0,80,29.98,1.2,SSW,10.4,20.7,0.00,Snow,Light Snow,200,2012-11-25 11:27:00
6:34 AM,28.4,23.0,80,29.98,3.0,SSW,11.5,-,0.00,Snow,Light Snow,200,2012-11-25 11:34:00
6:53 AM,28.0,23.0,81,30.00,10.0,South,11.5,18.4,0.00,,Overcast,190,2012-11-25 11:53:00
7:53 AM,28.9,21.9,75,29.98,4.0,South,12.7,-,0.00,Snow,Light Snow,180,2012-11-25 12:53:00
8:53 AM,30.0,21.9,72,29.97,7.0,South,13.8,20.7,0.00,,Overcast,190,2012-11-25 13:53:00
9:53 AM,30.9,21.9,69,29.95,10.0,South,9.2,19.6,0.00,,Overcast,180,2012-11-25 14:53:00
10:53 AM,33.1,21.0,61,29.93,10.0,SSW,11.5,21.9,N/A,,Scattered Clouds,200,2012-11-25 15:53:00
11:53 AM,36.0,21.9,57,29.90,10.0,SSW,16.1,23.0,N/A,,Partly Cloudy,200,2012-11-25 16:53:00
12:53 PM,37.9,23.0,55,29.87,10.0,WSW,13.8,-,N/A,,Mostly Cloudy,240,2012-11-25 17:53:00
1:53 PM,39.9,24.1,53,29.86,10.0,WSW,13.8,-,N/A,,Mostly Cloudy,250,2012-11-25 18:53:00
2:53 PM,39.9,25.0,55,29.87,10.0,West,12.7,-,N/A,,Mostly Cloudy,260,2012-11-25 19:53:00
3:53 PM,39.0,26.1,60,29.88,10.0,West,11.5,-,N/A,,Mostly Cloudy,260,2012-11-25 20:53:00
4:53 PM,37.9,28.0,68,29.89,10.0,West,16.1,-,N/A,,Mostly Cloudy,270,2012-11-25 21:53:00
5:53 PM,37.0,28.0,70,29.91,10.0,West,13.8,-,N/A,,Clear,270,2012-11-25 22:53:00
6:53 PM,37.9,28.9,70,29.93,10.0,West,13.8,-,N/A,,Scattered Clouds,280,2012-11-25 23:53:00
7:53 PM,39.0,28.9,67,29.95,10.0,West,13.8,-,N/A,,Overcast,280,2012-11-26 00:53:00
8:48 PM,39.2,28.4,65,29.94,10.0,West,13.8,-,N/A,,Overcast,280,2012-11-26 01:48:00
8:53 PM,39.0,28.9,67,29.96,10.0,West,13.8,-,N/A,,Overcast,280,2012-11-26 01:53:00
9:00 PM,39.2,28.4,65,29.94,10.0,West,15.0,-,N/A,,Overcast,280,2012-11-26 02:00:00
9:53 PM,39.0,28.9,67,29.96,10.0,West,15.0,-,N/A,,Overcast,280,2012-11-26 02:53:00
10:53 PM,39.0,28.9,67,29.98,10.0,West,18.4,-,N/A,,Overcast,280,2012-11-26 03:53:00
11:53 PM,39.0,30.0,70,29.99,10.0,WNW,19.6,23.0,N/A,,Overcast,290,2012-11-26 04:53:00